Weather reports worldwide

Advertisment
Charleville, France (7075): temperature & dewpoint: 13.11.2019 18:00:00 - 19.11.2019 18:00:00 (CET)Charleville, France (7075): temperature 5cm: 13.11.2019 18:00:00 - 19.11.2019 18:00:00 (CET)Charleville, France (7075): temperature -20cm & temperature -100cm: 13.11.2019 18:00:00 - 19.11.2019 18:00:00 (CET)Charleville, France (7075): wind speed & gusts: 13.11.2019 18:00:00 - 19.11.2019 18:00:00 (CET)Charleville, France (7075): wind direction: 13.11.2019 18:00:00 - 19.11.2019 18:00:00 (CET)Charleville, France (7075): reduced air pressure: 13.11.2019 18:00:00 - 19.11.2019 18:00:00 (CET)Charleville, France (7075): visibility: 13.11.2019 18:00:00 - 19.11.2019 18:00:00 (CET)Charleville, France (7075): sunshine duration: 13.11.2019 18:00:00 - 19.11.2019 18:00:00 (CET)Charleville, France (7075): precipitation: 13.11.2019 18:00:00 - 19.11.2019 18:00:00 (CET)
Date & Time tt [°C] td [°C] tt 5cm [°C] tt -20cm [°C] tt -100cm [°C] ff [km/h] ff [kn] fx [km/h] fx [kn] dd ppp [hPa] vv [km] sd [min] rr [mm]
19.11.2019 18:00:00 0,4 -0,2 -2,7 6,8 11,3 3 2 10 5 E 1020,2 7 0 0,0
19.11.2019 17:00:00 1,4 0,2 -0,7 6,8 11,4 6 3 11 6 ESE 1019,4 9 18 0,0
19.11.2019 16:00:00 5,2 2,5 5,8 6,7 11,3 8 5 11 6 SE 1019,0 17 60 0,0
19.11.2019 15:00:00 6,0 3,0 7,4 6,6 11,3 8 4 11 6 ESE 1019,0 19 42 0,0
19.11.2019 14:00:00 6,1 3,3 9,4 6,6 11,3 5 3 11 6 E 1019,1 18 58 0,0
19.11.2019 13:00:00 5,3 2,8 5,1 6,6 11,4 4 2 11 6 SE 1019,3 18 33 0,0
19.11.2019 12:00:00 3,6 2,6 4,0 6,6 11,4 2 1 13 7 E 1019,7 16 0 0,0
19.11.2019 11:00:00 2,5 2,2 3,4 6,6 11,4 6 3 13 7 WNW 1019,6 7 0 0,0
19.11.2019 10:00:00 2,4 2,3 2,3 6,6 11,4 6 3 12 7 NW 1019,2 2,2 0 0,0
19.11.2019 09:00:00 1,8 1,7 -0,3 6,7 11,4 6 4 13 7 NW 1018,9 1,5 0 0,0
19.11.2019 08:00:00 0,3 0,2 -1,7 6,7 11,4 0 0 6 3 N 1018,6 6 0 0,0
19.11.2019 07:00:00 0,1 -0,2 -1,3 6,8 11,4 3 2 14 8 S 1018,1 4,2 0 0,0
19.11.2019 06:00:00 0,5 0,2 -0,8 6,8 11,4 9 5 11 6 NNW 1017,4 9 0 0,0
19.11.2019 05:00:00 1,0 0,9 -1,5 6,8 11,4 6 4 9 5 WNW 1017,2 2,5 0 0,0
19.11.2019 04:00:00 1,0 0,6 -1,1 6,8 11,4 3 2 4 2 WSW 1016,8 0,8 0 0,0
19.11.2019 03:00:00 2,3 1,9 -0,4 6,9 11,4 3 2 13 7 W 1016,8 10 0 0,0
19.11.2019 02:00:00 2,8 1,8 1,2 6,8 11,4 8 4 16 9 W 1016,2 20 0 0,0
19.11.2019 01:00:00 4,6 3,3 3,2 6,8 11,4 11 6 18 10 WNW 1016,0 20 0 0,0
19.11.2019 00:00:00 5,3 3,9 4,0 6,8 11,5 11 6 22 12 WNW 1015,6 17 0 0,0
18.11.2019 23:00:00 6,1 4,7 5,3 6,8 11,5 14 7 24 13 W 1014,7 18 0 0,0
18.11.2019 22:00:00 6,3 4,9 5,5 6,8 11,5 16 9 24 13 WNW 1014,0 16 0 0,0
18.11.2019 21:00:00 6,7 5,3 6,0 6,7 11,5 13 7 21 11 W 1013,3 17 0 0,0
18.11.2019 20:00:00 6,8 5,6 6,1 6,7 11,5 12 7 19 10 WNW 1012,6 19 0 0,2
18.11.2019 19:00:00 6,3 5,9 5,5 6,7 11,5 10 5 17 9 W 1011,8 5 0 0,8
18.11.2019 18:00:00 5,6 5,0 5,2 6,7 11,5 9 5 19 10 NNW 1011,6 7 0 0,2
18.11.2019 17:00:00 5,4 4,7 5,0 6,7 11,5 7 4 15 8 WSW 1011,4 6 0 0,2
18.11.2019 16:00:00 5,2 4,3 5,1 6,6 11,5 5 3 13 7 WSW 1011,2 4,8 0 1,6
18.11.2019 15:00:00 5,1 4,4 5,0 6,6 11,5 8 4 16 9 WNW 1011,1 4,2 0 2,0
18.11.2019 14:00:00 4,9 4,2 4,7 6,6 11,5 10 6 18 10 WNW 1010,7 2,9 0 1,2
18.11.2019 13:00:00 4,6 3,9 4,4 6,6 11,5 13 7 20 11 WNW 1010,3 2,1 0 0,4
18.11.2019 12:00:00 4,4 3,4 4,0 6,6 11,6 11 6 23 12 WNW 1010,4 3,1 0 0,0
18.11.2019 11:00:00 4,1 2,9 3,9 6,6 11,6 14 8 26 14 WNW 1010,4 3,5 0 0,2
18.11.2019 10:00:00 3,8 2,8 3,5 6,6 11,6 15 8 29 15 WNW 1010,1 2,9 0 0,0
18.11.2019 09:00:00 3,7 2,5 3,4 6,6 11,6 16 8 31 17 WNW 1009,8 6 0 0,0
18.11.2019 08:00:00 3,6 2,4 3,3 6,6 11,6 18 10 30 16 WNW 1009,4 3,9 0 0,2
18.11.2019 07:00:00 3,6 2,6 3,3 6,6 11,6 13 7 19 10 WNW 1009,6 5 0 0,0
18.11.2019 06:00:00 3,7 2,4 3,4 6,6 11,6 11 6 22 12 WNW 1009,2 5 0 0,0
18.11.2019 05:00:00 4,0 2,3 3,6 6,6 11,6 12 7 22 12 WNW 1008,8 7 0 0,0
18.11.2019 04:00:00 4,1 2,3 3,8 6,6 11,6 11 6 23 13 NW 1008,8 8 0 0,0
18.11.2019 03:00:00 4,4 2,3 4,1 6,6 11,6 10 6 18 10 WNW 1008,9 9 0 0,0
18.11.2019 02:00:00 4,4 2,1 3,9 6,6 11,7 11 6 19 10 WNW 1008,9 9 0 0,0
18.11.2019 01:00:00 4,3 2,2 3,9 6,6 11,6 8 4 24 13 NW 1008,7 10 0 0,0
18.11.2019 00:00:00 4,6 2,0 4,1 6,6 11,7 9 5 23 12 WNW 1008,7 14 0 0,0
17.11.2019 23:00:00 4,6 2,0 3,7 6,6 11,7 10 5 19 11 NW 1008,6 13 0 0,0
17.11.2019 22:00:00 4,7 1,9 3,5 6,6 11,7 12 6 21 11 W 1008,8 15 0 0,0
17.11.2019 21:00:00 4,8 2,0 4,0 6,6 11,7 7 4 19 10 WNW 1008,9 16 0 0,0
17.11.2019 20:00:00 4,9 2,1 3,9 6,5 11,7 13 7 26 14 NNW 1008,7 17 0 0,0
17.11.2019 19:00:00 4,7 2,1 4,1 6,5 11,7 15 8 25 14 WNW 1008,8 18 0 0,0
17.11.2019 18:00:00 4,9 2,1 4,0 6,5 11,7 16 9 25 13 WNW 1008,9 19 0 0,0
17.11.2019 17:00:00 5,0 2,2 4,2 6,4 11,7 12 7 18 10 WNW 1009,2 20 0 0,0
17.11.2019 16:00:00 5,7 2,3 5,7 6,4 11,7 15 8 18 10 NNW 1009,0 20 0 0,0
17.11.2019 15:00:00 6,8 3,2 7,5 6,3 11,7 9 5 13 7 NNW 1009,4 20 0 0,0
17.11.2019 14:00:00 6,8 3,2 7,1 6,3 11,7 7 4 17 9 NW 1009,6 20 0 0,0
17.11.2019 13:00:00 4,5 3,0 5,9 6,3 11,7 8 5 18 10 WNW 1010,0 13 0 0,0
17.11.2019 12:00:00 2,4 1,5 3,1 6,4 11,7 0 0 5 3 N 1010,5 9 19 0,0
17.11.2019 11:00:00 1,3 1,0 0,3 6,4 11,8 0 0 7 4 N 1011,1 8 45 0,0
17.11.2019 10:00:00 -1,7 -2,1 -3,3 6,5 11,8 3 2 5 3 NW 1011,6 0,5 47 0,0
17.11.2019 09:00:00 -3,2 -3,6 -4,7 6,6 11,8 0 0 6 3 N 1011,7 0,4 0 0,0
17.11.2019 08:00:00 -3,1 -3,4 -4,8 6,6 11,8 4 2 6 3 W 1012,1 0,3 0 0,0
17.11.2019 07:00:00 -3,3 -3,6 -4,4 6,7 11,8 4 2 6 3 ENE 1012,1 0,2 0 0,0
17.11.2019 06:00:00 -2,8 -3,1 -5,1 6,7 11,8 0 0 3 2 N 1011,7 0,2 0 0,0
17.11.2019 05:00:00 -2,9 -3,3 -5,1 6,8 11,8 0 0 3 2 N 1011,6 0,2 0 0,0
17.11.2019 04:00:00 -2,3 -2,6 -4,9 6,8 11,8 0 0 3 2 N 1011,8 0,1 0 0,0
17.11.2019 03:00:00 -1,4 -1,7 -4,4 6,8 11,8 0 0 5 3 N 1012,1 0,2 0 0,0
17.11.2019 02:00:00 -1,3 -1,7 -3,6 6,9 11,8 3 1 9 5 S 1012,2 0,6 0 0,0
17.11.2019 01:00:00 0,1 -0,8 -2,0 6,9 11,9 0 0 6 4 N 1012,0 3,1 0 0,0
17.11.2019 00:00:00 2,1 1,2 1,4 6,9 11,9 4 2 12 6 SE 1012,1 12 0 0,0
16.11.2019 23:00:00 2,6 1,7 0,7 6,9 11,9 9 5 16 8 ESE 1012,0 11 0 0,0
16.11.2019 22:00:00 2,1 1,2 0,7 6,9 11,8 7 4 13 7 ESE 1011,6 14 0 0,0
16.11.2019 21:00:00 3,9 2,7 1,8 6,9 11,8 8 4 11 6 ESE 1011,5 15 0 0,0
16.11.2019 20:00:00 3,7 2,7 3,0 6,8 11,9 6 3 9 5 SE 1011,1 11 0 0,0
16.11.2019 19:00:00 3,2 2,6 1,5 6,8 11,9 3 2 7 4 E 1010,5 11 0 0,0
16.11.2019 18:00:00 2,2 1,5 0,2 6,8 11,9 0 0 12 6 N 1010,1 11 0 0,0
16.11.2019 17:00:00 4,8 2,5 3,8 6,7 11,9 10 6 15 8 SE 1009,4 20 0 0,0
16.11.2019 16:00:00 5,6 3,3 5,7 6,7 11,9 8 4 15 8 ESE 1009,3 20 0 0,0
16.11.2019 15:00:00 5,3 3,0 5,8 6,7 11,9 9 5 19 10 ESE 1009,1 20 0 0,0
16.11.2019 14:00:00 5,0 2,7 7,0 6,7 11,9 11 6 19 10 ESE 1008,8 20 16 0,0
16.11.2019 13:00:00 4,7 2,4 5,1 6,7 11,9 10 5 19 10 ESE 1008,8 19 11 0,0
16.11.2019 12:00:00 3,7 2,1 3,4 6,7 11,9 10 6 19 10 ESE 1009,0 16 28 0,0
16.11.2019 11:00:00 2,1 1,1 0,8 6,8 11,9 5 3 15 8 ESE 1009,2 10 0 0,0
16.11.2019 10:00:00 0,8 0,4 -1,1 6,9 11,9 4 2 16 8 S 1009,2 8 0 0,0
16.11.2019 09:00:00 -0,7 -1,0 -5,1 7,0 11,9 8 4 13 7 E 1008,6 0,8 0 0,0
16.11.2019 08:00:00 -4,3 -4,7 -5,9 7,1 12,0 6 3 8 4 ESE 1008,0 0,2 0 0,0
16.11.2019 07:00:00 -3,1 -3,4 -5,8 7,1 12,0 2 1 6 4 ESE 1007,2 0,3 0 0,0
16.11.2019 06:00:00 -2,6 -2,9 -5,4 7,2 12,0 4 2 7 4 S 1006,4 0,3 0 0,0
16.11.2019 05:00:00 -3,1 -3,5 -5,4 7,3 12,0 5 3 7 4 E 1006,2 0,4 0 0,0
16.11.2019 04:00:00 -1,6 -2,2 -5,0 7,4 12,0 3 1 6 4 S 1006,0 2,1 0 0,0
16.11.2019 03:00:00 -0,9 -1,7 -4,2 7,4 12,0 5 3 14 7 ESE 1005,9 6 0 0,0
16.11.2019 02:00:00 0,8 -0,1 -1,1 7,5 12,0 9 5 19 10 ESE 1005,2 20 0 0,0
16.11.2019 01:00:00 0,6 0,2 -3,6 7,6 12,0 11 6 18 10 ESE 1004,9 20 0 0,0
16.11.2019 00:00:00 0,3 -0,3 -3,8 7,6 12,1 6 3 15 8 SE 1004,4 20 0 0,0
15.11.2019 23:00:00 -0,2 -1,0 -3,2 7,6 12,0 3 2 10 5 SE 1003,9 2,2 0 0,0
15.11.2019 22:00:00 2,1 1,5 -1,0 7,6 12,0 5 3 12 7 SE 1003,5 20 0 0,0
15.11.2019 21:00:00 2,4 1,2 0,4 7,7 12,1 5 3 13 7 E 1003,0 20 0 0,0
15.11.2019 20:00:00 2,7 1,8 1,5 7,7 12,0 9 5 18 10 E 1002,8 20 0 0,0
15.11.2019 19:00:00 4,2 2,2 3,5 7,7 12,0 11 6 22 12 ESE 1002,5 20 0 0,0
15.11.2019 18:00:00 4,6 2,3 4,3 7,7 12,0 11 6 22 12 ESE 1001,7 20 0 0,0
15.11.2019 17:00:00 4,6 1,8 4,4 7,7 12,0 15 8 31 17 SE 1001,2 20 0 0,0
15.11.2019 16:00:00 4,7 2,2 4,3 7,7 12,1 17 9 34 18 S 1000,4 20 0 0,0
15.11.2019 15:00:00 4,6 2,5 4,2 7,7 12,1 15 8 36 19 SSE 999,7 20 0 0,0
15.11.2019 14:00:00 4,4 2,4 4,2 7,7 12,1 16 8 29 16 SSE 999,3 20 0 0,0
15.11.2019 13:00:00 4,4 2,6 3,9 7,7 12,1 16 8 28 15 SE 998,7 12 0 0,0
15.11.2019 12:00:00 4,2 2,7 3,8 7,7 12,1 10 5 19 10 SE 998,7 10 0 0,0
15.11.2019 11:00:00 4,3 2,5 3,9 7,7 12,1 15 8 23 13 E 998,8 12 0 0,0
15.11.2019 10:00:00 4,0 2,0 3,7 7,7 12,1 6 4 17 9 NNE 997,4 12 0 0,0
15.11.2019 09:00:00 3,7 2,4 3,5 7,7 12,1 4 2 18 10 ESE 998,4 11 0 0,0
15.11.2019 08:00:00 3,7 2,7 3,1 7,8 12,2 6 4 10 6 NW 998,1 9 0 0,0
15.11.2019 07:00:00 3,7 2,2 3,0 7,8 12,2 5 3 16 9 SSW 997,3 12 0 0,0
15.11.2019 06:00:00 3,6 2,1 3,1 7,8 12,2 5 3 18 10 E 996,7 11 0 0,0
15.11.2019 05:00:00 4,4 1,6 3,4 7,8 12,2 4 2 20 11 WNW 997,4 18 0 0,0
15.11.2019 04:00:00 4,3 2,2 2,8 7,8 12,2 8 5 19 11 NW 997,4 18 0 0,0
15.11.2019 03:00:00 4,1 2,3 2,6 7,8 12,2 5 3 18 10 W 998,3 18 0 0,0
15.11.2019 02:00:00 4,8 2,7 3,7 7,8 12,2 3 1 22 12 N 999,3 18 0 0,0
15.11.2019 01:00:00 4,6 3,4 3,9 7,9 12,2 8 4 15 8 WNW 999,9 12 0 0,0
15.11.2019 00:00:00 4,9 3,7 4,4 7,8 12,2 3 1 7 4 NNE 1000,8 9 0 0,0
14.11.2019 23:00:00 4,8 3,8 4,3 7,9 12,2 5 3 11 6 NW 1001,1 13 0 0,2
14.11.2019 22:00:00 4,6 3,7 4,3 7,9 12,2 3 2 12 7 W 1001,6 13 0 0,0
14.11.2019 21:00:00 4,8 3,8 4,4 7,9 12,2 8 4 18 10 E 1001,8 11 0 0,4
14.11.2019 20:00:00 4,8 3,5 4,5 7,9 12,3 7 4 18 10 E 1001,9 20 0 0,0
14.11.2019 19:00:00 4,8 3,3 4,4 7,8 12,3 10 6 21 11 E 1001,7 20 0 0,0
14.11.2019 18:00:00 4,9 3,6 4,2 7,9 12,3 15 8 22 12 E 1001,4 20 0 0,0
14.11.2019 17:00:00 4,5 3,3 4,3 7,8 12,3 9 5 19 10 E 1001,7 20 0 0,0
14.11.2019 16:00:00 5,5 3,8 5,7 7,8 12,3 12 6 19 11 ESE 1001,3 20 0 0,0
14.11.2019 15:00:00 5,5 3,7 5,8 7,8 12,3 12 6 21 11 ESE 1001,1 20 0 0,0
14.11.2019 14:00:00 5,6 3,8 6,2 7,8 12,3 10 5 16 9 SE 1000,8 20 0 0,0
14.11.2019 13:00:00 5,4 3,6 4,9 7,8 12,3 9 5 21 11 SSE 1000,2 20 0 0,0
14.11.2019 12:00:00 4,7 3,2 4,2 7,8 12,3 13 7 25 14 SSE 1001,2 20 0 0,0
14.11.2019 11:00:00 4,1 3,1 3,8 7,8 12,3 14 7 26 14 SE 1000,9 12 0 0,2
14.11.2019 10:00:00 3,9 2,9 3,5 7,8 12,3 13 7 23 13 SE 1000,3 8 0 0,6
14.11.2019 09:00:00 3,8 2,6 3,3 7,9 12,4 15 8 33 18 SE 999,5 9 0 0,2
14.11.2019 08:00:00 4,0 2,3 3,4 7,9 12,4 19 10 41 22 SSE 998,8 10 0 1,4
14.11.2019 07:00:00 4,4 2,7 3,8 7,9 12,4 19 10 37 20 SE 997,7 15 0 0,4
14.11.2019 06:00:00 4,8 2,7 4,0 7,9 12,4 21 12 37 20 ESE 997,6 20 0 0,0
14.11.2019 05:00:00 4,5 2,8 4,0 8,0 12,4 16 8 34 19 ESE 997,4 20 0 0,0
14.11.2019 04:00:00 4,6 3,1 3,3 8,0 12,4 21 12 32 17 ESE 997,6 20 0 0,0
14.11.2019 03:00:00 4,3 3,0 3,4 8,0 12,4 14 8 25 14 ESE 998,4 20 0 0,0
14.11.2019 02:00:00 5,0 3,3 3,6 8,0 12,4 14 8 29 16 SE 999,1 20 0 0,0
14.11.2019 01:00:00 5,7 3,9 4,6 8,0 12,4 15 8 29 16 SSE 999,8 20 0 0,0
14.11.2019 00:00:00 5,6 3,9 5,1 8,0 12,4 19 10 37 20 SSE 1000,5 20 0 0,0
13.11.2019 23:00:00 5,7 4,2 5,3 8,0 12,4 17 9 30 16 SSE 1000,9 20 0 0,0
13.11.2019 22:00:00 6,0 4,3 5,8 8,0 12,4 15 8 36 19 S 1001,7 20 0 0,0
13.11.2019 21:00:00 6,1 4,7 4,8 8,0 12,4 16 8 30 16 S 1002,1 20 0 0,0
13.11.2019 20:00:00 5,9 4,5 4,9 7,9 12,4 13 7 29 16 S 1002,5 20 0 0,0
13.11.2019 19:00:00 5,9 4,9 4,9 7,9 12,5 13 7 25 13 S 1002,9 17 0 0,0
13.11.2019 18:00:00 6,2 4,7 5,1 7,8 12,4 12 6 24 13 S 1003,3 19 0 0,4

tt = temperature
td = dewpoint
tt 5cm = temperature 5cm
tt -20cm = temperature -20cm
tt -100cm = temperature -100cm
ff = wind speed
fx = gusts
dd = wind direction
ppp = reduced air pressure
vv = visibility
sd = sunshine duration
rr = precipitation

Next stations